Location: Banff
(51.1667°N, 115.5667°W)
Time: 06:41:49
(UTC+00:00)

S-56A Canister/Altair - Pass Details

Date: 03 December 2020
Orbit: 633 x 2499 km, 38.9° (Epoch: 21 January)

Event Time Altitude Azimuth Distance (km) Brightness Sun altitude
Rises 03:28:59 0° 246° (WSW) 5,731 12.7 -35.3°
Reaches altitude 10° 03:33:25 10° 240° (WSW) 4,478 11.9 -35.9°
Enters shadow 03:42:53 38° 189° (S) 2,276 9.7 -37.4°
Maximum altitude 03:43:42 38° 179° (S) 2,206 - -37.5°
Drops below altitude 10° 03:50:53 10° 114° (ESE) 3,123 - -38.6°
Sets 03:53:25 0° 106° (ESE) 3,862 - -39.0°
